Location: Epalinges
(46.5518°N, 6.6683°E)
Time: 14:32:41
(UTC+00:00)

Cosmos 1812 - Pass Details

Date: 20 June 2021
Orbit: 516 x 519 km, 82.5° (Epoch: 31 July)

Event Time Altitude Azimuth Distance (km) Brightness Sun altitude
Rises 02:03:54 0° 357° (N) 2,648 7.2 -12.3°
Reaches altitude 10° 02:06:09 10° 5° (N) 1,756 6.4 -12.1°
Maximum altitude 02:09:47 39° 76° (ENE) 788 4.1 -11.7°
Drops below altitude 10° 02:13:23 10° 146° (SSE) 1,741 5.2 -11.4°
Sets 02:15:36 0° 155° (SSE) 2,623 6.0 -11.1°
